Weather History for Paso Robles, CA

Change the Weather History Date:

Wednesday, April 16, 2014

  Actual Average Record
Temperature  
Mean Temperature 66 °F 57 °F  
Max Temperature 87 °F 73 °F 95 °F (1954)
Min Temperature 44 °F 41 °F 30 °F (1975)
Degree Days  
Heating Degree Days 0 8  
Month to date heating degree days 88 155  
Since 1 July heating degree days 2023 2614  
Cooling Degree Days 1 0  
Month to date cooling degree days 8 0  
Year to date cooling degree days 8 0  
Growing Degree Days 16 (Base 50)    
Moisture  
Dew Point 44 °F    
Average Humidity 58    
Maximum Humidity 100    
Minimum Humidity 15    
Precipitation  
Precipitation 0.00 in 0.02 in 0.23 in (1996)
Month to date precipitation 0.32 0.44  
Year to date precipitation 4.44 8.27  
Since 1 July precipitation 4.90 12.26  
Sea Level Pressure  
Sea Level Pressure 29.86 in    
Wind  
Wind Speed 7 mph (NW)    
Max Wind Speed 21 mph    
Max Gust Speed 24 mph    
Visibility 8 miles    
Events      
T = Trace of Precipitation, MM = Missing Value Source: NWS Daily Summary

Daily Weather History Graph

Daily Weather History Graph

Search for Another Location

Airport:

Trip Planner

Search our weather history database for the weather conditions in past years. The results will help you decide how hot, cold, wet, or windy it might be!

Date:

Astronomy

Apr. 16, 2014 Rise Set
Actual Time 6:28 AM PDT 7:36 PM PDT
Civil Twilight 6:02 AM PDT 8:03 PM PDT
Nautical Twilight 5:30 AM PDT 8:34 PM PDT
Astronomical Twilight 4:58 AM PDT 9:07 PM PDT
Moon 9:22 PM PDT (4/16) 7:21 AM PDT (4/16)
Length of Visible Light 14h 01m
Length of Day
13h 08m
Full, 98% of the Moon is Illuminated
Apr 16
Full
Apr 22
Last Quarter
Apr 28
New
May 6
First Quarter
May 14
Full

Hourly Weather History & Observations

Time (PDT) Temp. Windchill Dew Point Humidity Pressure Visibility Wind Dir Wind Speed Gust Speed Precip Events Conditions
12:53 AM 52.0 °F - 48.0 °F 86% 29.90 in 10.0 mi WNW 4.6 mph - N/A   Clear
1:53 AM 50.0 °F - 50.0 °F 100% 29.90 in 10.0 mi NW 5.8 mph - N/A   Clear
2:53 AM 48.9 °F - 48.9 °F 100% 29.91 in 10.0 mi SSW 3.5 mph - N/A   Clear
3:53 AM 46.0 °F - 46.0 °F 100% 29.89 in 10.0 mi Calm Calm - N/A   Clear
4:53 AM 44.1 °F - 44.1 °F 100% 29.89 in 9.0 mi Calm Calm - N/A   Partly Cloudy
5:05 AM 46.0 °F 43.1 °F 46.0 °F 100% 29.91 in 9.0 mi NW 5.8 mph - N/A   Mostly Cloudy
5:36 AM 46.9 °F - - N/A% 29.91 in 2.0 mi NNW 6.9 mph - N/A   Overcast
5:53 AM 48.0 °F - - N/A% 29.90 in 4.0 mi NW 6.9 mph - N/A   Haze
6:53 AM 48.0 °F - 48.0 °F 100% 29.90 in 6.0 mi NNW 6.9 mph - N/A   Overcast
7:24 AM 46.9 °F - 46.9 °F 100% 29.91 in 1.8 mi NNE 3.5 mph - N/A   Overcast
7:40 AM 46.9 °F - - N/A% 29.92 in 2.5 mi North 4.6 mph - N/A   Overcast
7:53 AM 48.0 °F - - N/A% 29.91 in 3.0 mi North 4.6 mph - N/A   Overcast
8:02 AM 48.0 °F - 48.0 °F 100% 29.92 in 1.5 mi North 4.6 mph - N/A   Overcast
8:15 AM 48.0 °F - 48.0 °F 100% 29.92 in 3.0 mi NNW 4.6 mph - N/A   Overcast
8:53 AM 48.9 °F - 48.9 °F 100% 29.92 in 9.0 mi NW 3.5 mph - N/A   Overcast
9:18 AM 51.1 °F - 51.1 °F 100% 29.92 in 10.0 mi Variable 3.5 mph - N/A   Mostly Cloudy
9:30 AM 53.1 °F - 51.1 °F 93% 29.91 in 10.0 mi WNW 5.8 mph - N/A   Scattered Clouds
9:53 AM 55.0 °F - 51.1 °F 86% 29.91 in 10.0 mi NW 5.8 mph - N/A   Clear
11:53 AM 70.0 °F - 43.0 °F 38% 29.88 in 10.0 mi NNW 8.1 mph - N/A   Clear
12:53 PM 78.1 °F - 42.1 °F 28% 29.84 in 10.0 mi Variable 6.9 mph - N/A   Clear
1:53 PM 81.0 °F - 37.0 °F 21% 29.81 in 10.0 mi WSW 4.6 mph - N/A   Clear
2:53 PM 82.9 °F - 37.9 °F 20% 29.79 in 10.0 mi Variable 4.6 mph - N/A   Clear
3:53 PM 84.9 °F - 37.9 °F 19% 29.77 in 10.0 mi Variable 4.6 mph - N/A   Clear
4:53 PM 87.1 °F - 34.0 °F 15% 29.75 in 10.0 mi West 6.9 mph - N/A   Clear
5:53 PM 87.1 °F - 33.1 °F 15% 29.74 in 10.0 mi WNW 5.8 mph - N/A   Clear
6:53 PM 81.0 °F - 42.1 °F 25% 29.75 in 10.0 mi NW 11.5 mph 20.7 mph N/A   Clear
7:53 PM 72.0 °F - 43.0 °F 35% 29.77 in 10.0 mi NW 18.4 mph - N/A   Clear
8:53 PM 68.0 °F - 42.1 °F 39% 29.81 in 10.0 mi WNW 17.3 mph - N/A   Clear
9:53 PM 64.9 °F - 41.0 °F 42% 29.82 in 10.0 mi NW 15.0 mph 19.6 mph N/A   Clear
10:53 PM 61.0 °F - 41.0 °F 48% 29.84 in 10.0 mi NW 5.8 mph - N/A   Clear
11:53 PM 60.1 °F - 41.0 °F 49% 29.84 in 10.0 mi North 6.9 mph - N/A   Clear